Delta Virtual Airport Information Service

Dubai International Airport

ICAO: OMDB Country: United Arab Emirates
Latitude: 25.2528 Longitude: 55.3644
Latest Arrival : FDX6349971 (WSSS-OMDB) Latest Departure : DAC8318 (OMDB-OBBI)


WX CaptureLIVE
Data provided by noaa.gov | Fetched at 09:45:51

METAR : OMDB 041500Z 34009KT CAVOK 28/14 Q1013 NOSIG

TAF : OMDB 041100Z 0412/0518 30010KT CAVOK BECMG 0415/0417 07005KT BECMG 0509/0511 33013KT BECMG 0516/0518 VRB02KT


Runway Data for OMDB
Data provided by openaviationdata.com

Runway ID Mag Var Hdg Length Elevation Surface ILS Freq ILS Id ILS Slope
12L 1 119° 13143 ft 34 ft Asphalt 110.1 IDBL 3
12R 1 119° 14606 ft 34 ft Asphalt 109.5 IDBE 3
30L 1 299° 14606 ft 34 ft Asphalt 111.3 IDBW 3
30R 1 299° 13143 ft 34 ft Asphalt 110.9 IDBR 3

Dubai International Airport, United Arab Emirates
Use only for reference purposes



Not for navigational purposes.